Year,Month,Day,Hour,Minute,Value (Times are PST for temperature in C)
2018,07,24,00,00,18.60
2018,07,24,00,01,18.60
2018,07,24,00,02,18.60
2018,07,24,00,03,18.60
2018,07,24,00,04,18.60
2018,07,24,00,05,18.60
2018,07,24,00,06,18.60
2018,07,24,00,07,18.60
2018,07,24,00,08,18.60
2018,07,24,00,09,18.60
2018,07,24,00,10,18.60
2018,07,24,00,11,18.60
2018,07,24,00,12,18.70
2018,07,24,00,13,18.70
2018,07,24,00,14,18.70
2018,07,24,00,15,18.70
2018,07,24,00,16,18.70
2018,07,24,00,17,18.70
2018,07,24,00,18,18.70
2018,07,24,00,19,18.70
2018,07,24,00,20,18.70
2018,07,24,00,21,18.70
2018,07,24,00,22,18.70
2018,07,24,00,23,18.70
2018,07,24,00,24,18.70
2018,07,24,00,25,18.60
2018,07,24,00,26,18.60
2018,07,24,00,27,18.60
2018,07,24,00,28,18.60
2018,07,24,00,29,18.60
2018,07,24,00,30,18.60
2018,07,24,00,31,18.60
2018,07,24,00,32,18.60
2018,07,24,00,33,18.60
2018,07,24,00,34,18.60
2018,07,24,00,35,18.50
2018,07,24,00,36,18.50
2018,07,24,00,37,18.50
2018,07,24,00,38,18.40
2018,07,24,00,39,18.40
2018,07,24,00,40,18.40
2018,07,24,00,41,18.40
2018,07,24,00,42,18.40
2018,07,24,00,43,18.40
2018,07,24,00,44,18.40
2018,07,24,00,45,18.40
2018,07,24,00,46,18.40
2018,07,24,00,47,18.40
2018,07,24,00,48,18.40
2018,07,24,00,49,18.40
2018,07,24,00,50,18.40
2018,07,24,00,51,18.30
2018,07,24,00,52,18.30
2018,07,24,00,53,18.30
2018,07,24,00,54,18.30
2018,07,24,00,55,18.30
2018,07,24,00,56,18.30
2018,07,24,00,57,18.30
2018,07,24,00,58,18.30
2018,07,24,00,59,18.30
2018,07,24,01,00,18.30
2018,07,24,01,01,18.30
2018,07,24,01,02,18.30
2018,07,24,01,03,18.30
2018,07,24,01,04,18.20
2018,07,24,01,05,18.20
2018,07,24,01,06,18.20
2018,07,24,01,07,18.20
2018,07,24,01,08,18.20
2018,07,24,01,09,18.10
2018,07,24,01,10,18.10
2018,07,24,01,11,18.10
2018,07,24,01,12,18.10
2018,07,24,01,13,18.00
2018,07,24,01,14,18.00
2018,07,24,01,15,18.00
2018,07,24,01,16,17.90
2018,07,24,01,17,17.90
2018,07,24,01,18,17.90
2018,07,24,01,19,17.80
2018,07,24,01,20,17.80
2018,07,24,01,21,17.80
2018,07,24,01,22,17.80
2018,07,24,01,23,17.80
2018,07,24,01,24,17.70
2018,07,24,01,25,17.70
2018,07,24,01,26,17.70
2018,07,24,01,27,17.70
2018,07,24,01,28,17.70
2018,07,24,01,29,17.70
2018,07,24,01,30,17.70
2018,07,24,01,31,17.70
2018,07,24,01,32,17.70
2018,07,24,01,33,17.70
2018,07,24,01,34,17.70
2018,07,24,01,35,17.70
2018,07,24,01,36,17.70
2018,07,24,01,37,17.70
2018,07,24,01,38,17.70
2018,07,24,01,39,17.70
2018,07,24,01,40,17.70
2018,07,24,01,41,17.70
2018,07,24,01,42,17.70
2018,07,24,01,43,17.70
2018,07,24,01,44,17.70
2018,07,24,01,45,17.70
2018,07,24,01,46,17.70
2018,07,24,01,47,17.70
2018,07,24,01,48,17.60
2018,07,24,01,49,17.60
2018,07,24,01,50,17.60
2018,07,24,01,51,17.60
2018,07,24,01,52,17.60
2018,07,24,01,53,17.50
2018,07,24,01,54,17.50
2018,07,24,01,55,17.50
2018,07,24,01,56,17.40
2018,07,24,01,57,17.40
2018,07,24,01,58,17.40
2018,07,24,01,59,17.30
2018,07,24,02,00,17.30
2018,07,24,02,01,17.30
2018,07,24,02,02,17.30
2018,07,24,02,03,17.20
2018,07,24,02,04,17.20
2018,07,24,02,05,17.20
2018,07,24,02,06,17.20
2018,07,24,02,07,17.20
2018,07,24,02,08,17.10
2018,07,24,02,09,17.10
2018,07,24,02,10,17.10
2018,07,24,02,11,17.10
2018,07,24,02,12,17.10
2018,07,24,02,13,17.20
2018,07,24,02,14,17.20
2018,07,24,02,15,17.20
2018,07,24,02,16,17.20
2018,07,24,02,17,17.20
2018,07,24,02,18,17.20
2018,07,24,02,19,17.20
2018,07,24,02,20,17.30
2018,07,24,02,21,17.30
2018,07,24,02,22,17.30
2018,07,24,02,23,17.30
2018,07,24,02,24,17.30
2018,07,24,02,25,17.30
2018,07,24,02,26,17.30
2018,07,24,02,27,17.30
2018,07,24,02,28,17.30
2018,07,24,02,29,17.30
2018,07,24,02,30,17.20
2018,07,24,02,31,17.20
2018,07,24,02,32,17.20
2018,07,24,02,33,17.10
2018,07,24,02,34,17.10
2018,07,24,02,35,17.10
2018,07,24,02,36,17.00
2018,07,24,02,37,17.00
2018,07,24,02,38,16.90
2018,07,24,02,39,16.90
2018,07,24,02,40,16.90
2018,07,24,02,41,16.80
2018,07,24,02,42,16.80
2018,07,24,02,43,16.80
2018,07,24,02,44,16.80
2018,07,24,02,45,16.80
2018,07,24,02,46,16.70
2018,07,24,02,47,16.70
2018,07,24,02,48,16.70
2018,07,24,02,49,16.70
2018,07,24,02,50,16.70
2018,07,24,02,51,16.70
2018,07,24,02,52,16.70
2018,07,24,02,53,16.60
2018,07,24,02,54,16.60
2018,07,24,02,55,16.60
2018,07,24,02,56,16.60
2018,07,24,02,57,16.60
2018,07,24,02,58,16.60
2018,07,24,02,59,16.50
2018,07,24,03,00,16.50
2018,07,24,03,01,16.50
2018,07,24,03,02,16.50
2018,07,24,03,03,16.40
2018,07,24,03,04,16.40
2018,07,24,03,05,16.40
2018,07,24,03,06,16.40
2018,07,24,03,07,16.40
2018,07,24,03,08,16.40
2018,07,24,03,09,16.40
2018,07,24,03,10,16.30
2018,07,24,03,11,16.30
2018,07,24,03,12,16.30
2018,07,24,03,13,16.30
2018,07,24,03,14,16.30
2018,07,24,03,15,16.30
2018,07,24,03,16,16.30
2018,07,24,03,17,16.30
2018,07,24,03,18,16.20
2018,07,24,03,19,16.20
2018,07,24,03,20,16.20
2018,07,24,03,21,16.20
2018,07,24,03,22,16.20
2018,07,24,03,23,16.10
2018,07,24,03,24,16.10
2018,07,24,03,25,16.10
2018,07,24,03,26,16.10
2018,07,24,03,27,16.10
2018,07,24,03,28,16.10
2018,07,24,03,29,16.10
2018,07,24,03,30,16.10
2018,07,24,03,31,16.10
2018,07,24,03,32,16.10
2018,07,24,03,33,16.10
2018,07,24,03,34,16.10
2018,07,24,03,35,16.10
2018,07,24,03,36,16.10
2018,07,24,03,37,16.10
2018,07,24,03,38,16.00
2018,07,24,03,39,16.00
2018,07,24,03,40,16.00
2018,07,24,03,41,16.00
2018,07,24,03,42,16.00
2018,07,24,03,43,16.00
2018,07,24,03,44,16.00
2018,07,24,03,45,16.00
2018,07,24,03,46,16.00
2018,07,24,03,47,16.00
2018,07,24,03,48,15.90
2018,07,24,03,49,15.90
2018,07,24,03,50,15.90
2018,07,24,03,51,15.90
2018,07,24,03,52,15.90
2018,07,24,03,53,15.90
2018,07,24,03,54,15.90
2018,07,24,03,55,15.90
2018,07,24,03,56,15.90
2018,07,24,03,57,15.90
2018,07,24,03,58,16.00
2018,07,24,03,59,16.00
2018,07,24,04,00,16.00
2018,07,24,04,01,16.00
2018,07,24,04,02,16.00
2018,07,24,04,03,16.00
2018,07,24,04,04,16.00
2018,07,24,04,05,16.00
2018,07,24,04,06,16.00
2018,07,24,04,07,16.00
2018,07,24,04,08,16.00
2018,07,24,04,09,15.90
2018,07,24,04,10,15.90
2018,07,24,04,11,15.90
2018,07,24,04,12,15.90
2018,07,24,04,13,15.90
2018,07,24,04,14,15.80
2018,07,24,04,15,15.80
2018,07,24,04,16,15.80
2018,07,24,04,17,15.80
2018,07,24,04,18,15.80
2018,07,24,04,19,15.70
2018,07,24,04,20,15.70
2018,07,24,04,21,15.70
2018,07,24,04,22,15.70
2018,07,24,04,23,15.60
2018,07,24,04,24,15.60
2018,07,24,04,25,15.60
2018,07,24,04,26,15.60
2018,07,24,04,27,15.60
2018,07,24,04,28,15.50
2018,07,24,04,29,15.50
2018,07,24,04,30,15.40
2018,07,24,04,31,15.40
2018,07,24,04,32,15.40
2018,07,24,04,33,15.30
2018,07,24,04,34,15.30
2018,07,24,04,35,15.30
2018,07,24,04,36,15.30
2018,07,24,04,37,15.30
2018,07,24,04,38,15.20
2018,07,24,04,39,15.20
2018,07,24,04,40,15.20
2018,07,24,04,41,15.20
2018,07,24,04,42,15.20
2018,07,24,04,43,15.20
2018,07,24,04,44,15.10
2018,07,24,04,45,15.10
2018,07,24,04,46,15.10
2018,07,24,04,47,15.10
2018,07,24,04,48,15.10
2018,07,24,04,49,15.10
2018,07,24,04,50,15.00
2018,07,24,04,51,15.00
2018,07,24,04,52,15.00
2018,07,24,04,53,15.00
2018,07,24,04,54,14.90
2018,07,24,04,55,14.90
2018,07,24,04,56,14.90
2018,07,24,04,57,14.90
2018,07,24,04,58,14.90
2018,07,24,04,59,14.90
2018,07,24,05,00,14.90
2018,07,24,05,01,14.80
2018,07,24,05,02,14.80
2018,07,24,05,03,14.80
2018,07,24,05,04,14.80
2018,07,24,05,05,14.80
2018,07,24,05,06,14.80
2018,07,24,05,07,14.80
2018,07,24,05,08,14.80
2018,07,24,05,09,14.70
2018,07,24,05,10,14.70
2018,07,24,05,11,14.70
2018,07,24,05,12,14.70
2018,07,24,05,13,14.70
2018,07,24,05,14,14.70
2018,07,24,05,15,14.70
2018,07,24,05,16,14.70
2018,07,24,05,17,14.70
2018,07,24,05,18,14.70
2018,07,24,05,19,14.70
2018,07,24,05,20,14.70
2018,07,24,05,21,14.60
2018,07,24,05,22,14.60
2018,07,24,05,23,14.60
2018,07,24,05,24,14.60
2018,07,24,05,25,14.60
2018,07,24,05,26,14.60
2018,07,24,05,27,14.60
2018,07,24,05,28,14.60
2018,07,24,05,29,14.50
2018,07,24,05,30,14.50
2018,07,24,05,31,14.40
2018,07,24,05,32,14.40
2018,07,24,05,33,14.40
2018,07,24,05,34,14.40
2018,07,24,05,35,14.30
2018,07,24,05,36,14.30
2018,07,24,05,37,14.30
2018,07,24,05,38,14.30
2018,07,24,05,39,14.30
2018,07,24,05,40,14.30
2018,07,24,05,41,14.30
2018,07,24,05,42,14.30
2018,07,24,05,43,14.30
2018,07,24,05,44,14.20
2018,07,24,05,45,14.20
2018,07,24,05,46,14.20
2018,07,24,05,47,14.20
2018,07,24,05,48,14.20
2018,07,24,05,49,14.20
2018,07,24,05,50,14.10
2018,07,24,05,51,14.10
2018,07,24,05,52,14.10
2018,07,24,05,53,14.10
2018,07,24,05,54,14.10
2018,07,24,05,55,14.00
2018,07,24,05,56,14.00
2018,07,24,05,57,14.00
2018,07,24,05,58,14.00
2018,07,24,05,59,13.90
2018,07,24,06,00,13.90
2018,07,24,06,01,13.90
2018,07,24,06,02,13.90
2018,07,24,06,03,13.90
2018,07,24,06,04,13.80
2018,07,24,06,05,13.80
2018,07,24,06,06,13.80
2018,07,24,06,07,13.70
2018,07,24,06,08,13.70
2018,07,24,06,09,13.70
2018,07,24,06,10,13.70
2018,07,24,06,11,13.60
2018,07,24,06,12,13.60
2018,07,24,06,13,13.60
2018,07,24,06,14,13.60
2018,07,24,06,15,13.60
2018,07,24,06,16,13.60
2018,07,24,06,17,13.50
2018,07,24,06,18,13.50
2018,07,24,06,19,13.50
2018,07,24,06,20,13.50
2018,07,24,06,21,13.50
2018,07,24,06,22,13.50
2018,07,24,06,23,13.50
2018,07,24,06,24,13.50
2018,07,24,06,25,13.60
2018,07,24,06,26,13.60
2018,07,24,06,27,13.60
2018,07,24,06,28,13.60
2018,07,24,06,29,13.60
2018,07,24,06,30,13.60
2018,07,24,06,31,13.60
2018,07,24,06,32,13.60
2018,07,24,06,33,13.60
2018,07,24,06,34,13.70
2018,07,24,06,35,13.70
2018,07,24,06,36,13.70
2018,07,24,06,37,13.70
2018,07,24,06,38,13.70
2018,07,24,06,39,13.70
2018,07,24,06,40,13.70
2018,07,24,06,41,13.70
2018,07,24,06,42,13.70
2018,07,24,06,43,13.70
2018,07,24,06,44,13.70
2018,07,24,06,45,13.70
2018,07,24,06,46,13.70
2018,07,24,06,47,13.70
2018,07,24,06,48,13.70
2018,07,24,06,49,13.70
2018,07,24,06,50,13.70
2018,07,24,06,51,13.70
2018,07,24,06,52,13.70
2018,07,24,06,53,13.70
2018,07,24,06,54,13.70
2018,07,24,06,55,13.70
2018,07,24,06,56,13.70
2018,07,24,06,57,13.70
2018,07,24,06,58,13.80
2018,07,24,06,59,13.80
2018,07,24,07,00,13.80
2018,07,24,07,01,13.80
2018,07,24,07,02,13.80
2018,07,24,07,03,13.80
2018,07,24,07,04,13.90
2018,07,24,07,05,13.90
2018,07,24,07,06,14.00
2018,07,24,07,07,14.10
2018,07,24,07,08,14.20
2018,07,24,07,09,14.20
2018,07,24,07,10,14.30
2018,07,24,07,11,14.40
2018,07,24,07,12,14.50
2018,07,24,07,13,14.60
2018,07,24,07,14,14.70
2018,07,24,07,15,14.80
2018,07,24,07,16,14.90
2018,07,24,07,17,15.00
2018,07,24,07,18,15.10
2018,07,24,07,19,15.30
2018,07,24,07,20,15.40
2018,07,24,07,21,15.50
2018,07,24,07,22,15.60
2018,07,24,07,23,15.70
2018,07,24,07,24,15.80
2018,07,24,07,25,15.90
2018,07,24,07,26,16.00
2018,07,24,07,27,16.10
2018,07,24,07,28,16.10
2018,07,24,07,29,16.20
2018,07,24,07,30,16.30
2018,07,24,07,31,16.40
2018,07,24,07,32,16.50
2018,07,24,07,33,16.60
2018,07,24,07,34,16.70
2018,07,24,07,35,16.80
2018,07,24,07,36,16.90
2018,07,24,07,37,17.00
2018,07,24,07,38,17.10
2018,07,24,07,39,17.20
2018,07,24,07,40,17.30
2018,07,24,07,41,17.40
2018,07,24,07,42,17.50
2018,07,24,07,43,17.60
2018,07,24,07,44,17.70
2018,07,24,07,45,17.80
2018,07,24,07,46,17.90
2018,07,24,07,47,18.00
2018,07,24,07,48,18.10
2018,07,24,07,49,18.20
2018,07,24,07,50,18.30
2018,07,24,07,51,18.30
2018,07,24,07,52,18.40
2018,07,24,07,53,18.50
2018,07,24,07,54,18.60
2018,07,24,07,55,18.60
2018,07,24,07,56,18.70
2018,07,24,07,57,18.80
2018,07,24,07,58,18.90
2018,07,24,07,59,19.00
2018,07,24,08,00,19.10
2018,07,24,08,01,19.20
2018,07,24,08,02,19.30
2018,07,24,08,03,19.30
2018,07,24,08,04,19.40
2018,07,24,08,05,19.50
2018,07,24,08,06,19.60
2018,07,24,08,07,19.70
2018,07,24,08,08,19.70
2018,07,24,08,09,19.80
2018,07,24,08,10,19.80
2018,07,24,08,11,19.90
2018,07,24,08,12,19.90
2018,07,24,08,13,20.00
2018,07,24,08,14,20.00
2018,07,24,08,15,20.10
2018,07,24,08,16,20.10
2018,07,24,08,17,20.20
2018,07,24,08,18,20.20
2018,07,24,08,19,20.30
2018,07,24,08,20,20.30
2018,07,24,08,21,20.40
2018,07,24,08,22,20.50
2018,07,24,08,23,20.50
2018,07,24,08,24,20.60
2018,07,24,08,25,20.60
2018,07,24,08,26,20.70
2018,07,24,08,27,20.70
2018,07,24,08,28,20.70
2018,07,24,08,29,20.80
2018,07,24,08,30,20.80
2018,07,24,08,31,20.80
2018,07,24,08,32,20.80
2018,07,24,08,33,20.80
2018,07,24,08,34,20.90
2018,07,24,08,35,21.00
2018,07,24,08,36,21.00
2018,07,24,08,37,21.10
2018,07,24,08,38,21.20
2018,07,24,08,39,21.20
2018,07,24,08,40,21.30
2018,07,24,08,41,21.30
2018,07,24,08,42,21.30
2018,07,24,08,43,21.40
2018,07,24,08,44,21.40
2018,07,24,08,45,21.50
2018,07,24,08,46,21.60
2018,07,24,08,47,21.60
2018,07,24,08,48,21.70
2018,07,24,08,49,21.80
2018,07,24,08,50,21.80
2018,07,24,08,51,21.90
2018,07,24,08,52,21.90
2018,07,24,08,53,21.90
2018,07,24,08,54,22.00
2018,07,24,08,55,22.10
2018,07,24,08,56,22.20
2018,07,24,08,57,22.20
2018,07,24,08,58,22.30
2018,07,24,08,59,22.40
2018,07,24,09,00,22.40
2018,07,24,09,01,22.50
2018,07,24,09,02,22.60
2018,07,24,09,03,22.70
2018,07,24,09,04,22.80
2018,07,24,09,05,22.80
2018,07,24,09,06,22.90
2018,07,24,09,07,23.00
2018,07,24,09,08,23.10
2018,07,24,09,09,23.10
2018,07,24,09,10,23.20
2018,07,24,09,11,23.20
2018,07,24,09,12,23.20
2018,07,24,09,13,23.30
2018,07,24,09,14,23.30
2018,07,24,09,15,23.30
2018,07,24,09,16,23.40
2018,07,24,09,17,23.50
2018,07,24,09,18,23.60
2018,07,24,09,19,23.60
2018,07,24,09,20,23.70
2018,07,24,09,21,23.70
2018,07,24,09,22,23.70
2018,07,24,09,23,23.70
2018,07,24,09,24,23.70
2018,07,24,09,25,23.80
2018,07,24,09,26,23.80
2018,07,24,09,27,23.90
2018,07,24,09,28,23.90
2018,07,24,09,29,23.90
2018,07,24,09,30,23.90
2018,07,24,09,31,23.90
2018,07,24,09,32,23.90
2018,07,24,09,33,23.80
2018,07,24,09,34,23.80
2018,07,24,09,35,23.80
2018,07,24,09,36,23.80
2018,07,24,09,37,23.70
2018,07,24,09,38,23.60
2018,07,24,09,39,23.50
2018,07,24,09,40,23.40
2018,07,24,09,41,23.30
2018,07,24,09,42,23.20
2018,07,24,09,43,23.10
2018,07,24,09,44,23.10
2018,07,24,09,45,23.00
2018,07,24,09,46,23.00
2018,07,24,09,47,22.90
2018,07,24,09,48,22.80
2018,07,24,09,49,22.80
2018,07,24,09,50,22.80
2018,07,24,09,51,22.80
2018,07,24,09,52,22.80
2018,07,24,09,53,22.90
2018,07,24,09,54,22.90
2018,07,24,09,55,23.00
2018,07,24,09,56,23.10
2018,07,24,09,57,23.20
2018,07,24,09,58,23.30
2018,07,24,09,59,23.30
2018,07,24,10,00,23.30
2018,07,24,10,01,23.40
2018,07,24,10,02,23.40
2018,07,24,10,03,23.50
2018,07,24,10,04,23.50
2018,07,24,10,05,23.50
2018,07,24,10,06,23.50
2018,07,24,10,07,23.50
2018,07,24,10,08,23.50
2018,07,24,10,09,23.40
2018,07,24,10,10,23.40
2018,07,24,10,11,23.40
2018,07,24,10,12,23.40
2018,07,24,10,13,23.30
2018,07,24,10,14,23.30
2018,07,24,10,15,23.30
2018,07,24,10,16,23.40
2018,07,24,10,17,23.40
2018,07,24,10,18,23.40
2018,07,24,10,19,23.40
2018,07,24,10,20,23.50
2018,07,24,10,21,23.60
2018,07,24,10,22,23.70
2018,07,24,10,23,23.80
2018,07,24,10,24,23.90
2018,07,24,10,25,23.90
2018,07,24,10,26,23.90
2018,07,24,10,27,23.90
2018,07,24,10,28,24.00
2018,07,24,10,29,24.00
2018,07,24,10,30,24.00
2018,07,24,10,31,23.90
2018,07,24,10,32,23.90
2018,07,24,10,33,23.90
2018,07,24,10,34,23.90
2018,07,24,10,35,23.90
2018,07,24,10,36,23.90
2018,07,24,10,37,23.90
2018,07,24,10,38,23.90
2018,07,24,10,39,23.80
2018,07,24,10,40,23.80
2018,07,24,10,41,23.70
2018,07,24,10,42,23.60
2018,07,24,10,43,23.60
2018,07,24,10,44,23.60
2018,07,24,10,45,23.60
2018,07,24,10,46,23.50
2018,07,24,10,47,23.50
2018,07,24,10,48,23.50
2018,07,24,10,49,23.60
2018,07,24,10,50,23.60
2018,07,24,10,51,23.70
2018,07,24,10,52,23.70
2018,07,24,10,53,23.70
2018,07,24,10,54,23.70
2018,07,24,10,55,23.80
2018,07,24,10,56,23.90
2018,07,24,10,57,23.90
2018,07,24,10,58,23.90
2018,07,24,10,59,23.90
2018,07,24,11,00,23.90
2018,07,24,11,01,23.90
2018,07,24,11,02,23.90
2018,07,24,11,03,23.90
2018,07,24,11,04,24.00
2018,07,24,11,05,24.00
2018,07,24,11,06,24.10
2018,07,24,11,07,24.10
2018,07,24,11,08,24.10
2018,07,24,11,09,24.20
2018,07,24,11,10,24.30
2018,07,24,11,11,24.30
2018,07,24,11,12,24.30
2018,07,24,11,13,24.40
2018,07,24,11,14,24.40
2018,07,24,11,15,24.40
2018,07,24,11,16,24.40
2018,07,24,11,17,24.40
2018,07,24,11,18,24.50
2018,07,24,11,19,24.50
2018,07,24,11,20,24.40
2018,07,24,11,21,24.40
2018,07,24,11,22,24.40
2018,07,24,11,23,24.40
2018,07,24,11,24,24.40
2018,07,24,11,25,24.40
2018,07,24,11,26,24.50
2018,07,24,11,27,24.70
2018,07,24,11,28,24.80
2018,07,24,11,29,24.80
2018,07,24,11,30,24.90
2018,07,24,11,31,25.00
2018,07,24,11,32,25.00
2018,07,24,11,33,25.10
2018,07,24,11,34,25.10
2018,07,24,11,35,25.20
2018,07,24,11,36,25.20
2018,07,24,11,37,25.10
2018,07,24,11,38,25.10
2018,07,24,11,39,25.10
2018,07,24,11,40,25.10
2018,07,24,11,41,25.20
2018,07,24,11,42,25.20
2018,07,24,11,43,25.20
2018,07,24,11,44,25.10
2018,07,24,11,45,25.10
2018,07,24,11,46,25.10
2018,07,24,11,47,25.20
2018,07,24,11,48,25.10
2018,07,24,11,49,25.10
2018,07,24,11,50,25.00
2018,07,24,11,51,24.90
2018,07,24,11,52,24.80
2018,07,24,11,53,24.80
2018,07,24,11,54,24.80
2018,07,24,11,55,24.80
2018,07,24,11,56,24.80
2018,07,24,11,57,24.80
2018,07,24,11,58,24.90
2018,07,24,11,59,24.90
2018,07,24,12,00,24.90
2018,07,24,12,01,24.90
2018,07,24,12,02,24.90
2018,07,24,12,03,25.00
2018,07,24,12,04,25.00
2018,07,24,12,05,25.10
2018,07,24,12,06,25.10
2018,07,24,12,07,25.10
2018,07,24,12,08,25.10
2018,07,24,12,09,25.10
2018,07,24,12,10,25.10
2018,07,24,12,11,25.00
2018,07,24,12,12,25.00
2018,07,24,12,13,24.90
2018,07,24,12,14,24.90
2018,07,24,12,15,24.90
2018,07,24,12,16,25.00
2018,07,24,12,17,25.10
2018,07,24,12,18,25.10
2018,07,24,12,19,25.30
2018,07,24,12,20,25.40
2018,07,24,12,21,25.60
2018,07,24,12,22,25.70
2018,07,24,12,23,25.80
2018,07,24,12,24,25.90
2018,07,24,12,25,25.90
2018,07,24,12,26,26.00
2018,07,24,12,27,26.10
2018,07,24,12,28,26.20
2018,07,24,12,29,26.30
2018,07,24,12,30,26.40
2018,07,24,12,31,26.40
2018,07,24,12,32,26.50
2018,07,24,12,33,26.60
2018,07,24,12,34,26.60
2018,07,24,12,35,26.70
2018,07,24,12,36,26.80
2018,07,24,12,37,26.90
2018,07,24,12,38,27.00
2018,07,24,12,39,27.10
2018,07,24,12,40,27.10
2018,07,24,12,41,27.20
2018,07,24,12,42,27.20
2018,07,24,12,43,27.20
2018,07,24,12,44,27.10
2018,07,24,12,45,27.10
2018,07,24,12,46,27.10
2018,07,24,12,47,27.10
2018,07,24,12,48,27.00
2018,07,24,12,49,26.90
2018,07,24,12,50,26.90
2018,07,24,12,51,26.90
2018,07,24,12,52,26.90
2018,07,24,12,53,26.90
2018,07,24,12,54,26.80
2018,07,24,12,55,26.70
2018,07,24,12,56,26.60
2018,07,24,12,57,26.50
2018,07,24,12,58,26.50
2018,07,24,12,59,26.40
2018,07,24,13,00,26.30
2018,07,24,13,01,26.30
2018,07,24,13,02,26.20
2018,07,24,13,03,26.20
2018,07,24,13,04,26.30
2018,07,24,13,05,26.30
2018,07,24,13,06,26.30
2018,07,24,13,07,26.30
2018,07,24,13,08,26.30
2018,07,24,13,09,26.30
2018,07,24,13,10,26.30
2018,07,24,13,11,26.20
2018,07,24,13,12,26.20
2018,07,24,13,13,26.10
2018,07,24,13,14,26.10
2018,07,24,13,15,26.20
2018,07,24,13,16,26.30
2018,07,24,13,17,26.30
2018,07,24,13,18,26.40
2018,07,24,13,19,26.40
2018,07,24,13,20,26.50
2018,07,24,13,21,26.60
2018,07,24,13,22,26.70
2018,07,24,13,23,26.70
2018,07,24,13,24,26.80
2018,07,24,13,25,26.90
2018,07,24,13,26,27.00
2018,07,24,13,27,27.10
2018,07,24,13,28,27.10
2018,07,24,13,29,27.20
2018,07,24,13,30,27.20
2018,07,24,13,31,27.20
2018,07,24,13,32,27.20
2018,07,24,13,33,27.20
2018,07,24,13,34,27.20
2018,07,24,13,35,27.20
2018,07,24,13,36,27.20
2018,07,24,13,37,27.20
2018,07,24,13,38,27.30
2018,07,24,13,39,27.30
2018,07,24,13,40,27.20
2018,07,24,13,41,27.20
2018,07,24,13,42,27.30
2018,07,24,13,43,27.30
2018,07,24,13,44,27.40
2018,07,24,13,45,27.50
2018,07,24,13,46,27.50
2018,07,24,13,47,27.60
2018,07,24,13,48,27.60
2018,07,24,13,49,27.60
2018,07,24,13,50,27.60
2018,07,24,13,51,27.60
2018,07,24,13,52,27.60
2018,07,24,13,53,27.60
2018,07,24,13,54,27.70
2018,07,24,13,55,27.80
2018,07,24,13,56,27.80
2018,07,24,13,57,27.70
2018,07,24,13,58,27.70
2018,07,24,13,59,27.70
2018,07,24,14,00,27.70
2018,07,24,14,01,27.80
2018,07,24,14,02,27.90
2018,07,24,14,03,28.00
2018,07,24,14,04,28.10
2018,07,24,14,05,28.20
2018,07,24,14,06,28.20
2018,07,24,14,07,28.30
2018,07,24,14,08,28.30
2018,07,24,14,09,28.30
2018,07,24,14,10,28.30
2018,07,24,14,11,28.30
2018,07,24,14,12,28.30
2018,07,24,14,13,28.30
2018,07,24,14,14,28.30
2018,07,24,14,15,28.40
2018,07,24,14,16,28.40
2018,07,24,14,17,28.40
2018,07,24,14,18,28.40
2018,07,24,14,19,28.40
2018,07,24,14,20,28.40
2018,07,24,14,21,28.40
2018,07,24,14,22,28.50
2018,07,24,14,23,28.50
2018,07,24,14,24,28.60
2018,07,24,14,25,28.60
2018,07,24,14,26,28.70
2018,07,24,14,27,28.80
2018,07,24,14,28,28.90
2018,07,24,14,29,28.90
2018,07,24,14,30,29.00
2018,07,24,14,31,29.00
2018,07,24,14,32,29.10
2018,07,24,14,33,29.10
2018,07,24,14,34,29.20
2018,07,24,14,35,29.20
2018,07,24,14,36,29.20
2018,07,24,14,37,29.20
2018,07,24,14,38,29.20
2018,07,24,14,39,29.20
2018,07,24,14,40,29.30
2018,07,24,14,41,29.30
2018,07,24,14,42,29.30
2018,07,24,14,43,29.30
2018,07,24,14,44,29.30
2018,07,24,14,45,29.30
2018,07,24,14,46,29.30
2018,07,24,14,47,29.20
2018,07,24,14,48,29.20
2018,07,24,14,49,29.20
2018,07,24,14,50,29.20
2018,07,24,14,51,29.10
2018,07,24,14,52,29.00
2018,07,24,14,53,28.90
2018,07,24,14,54,28.90
2018,07,24,14,55,28.80
2018,07,24,14,56,28.80
2018,07,24,14,57,28.80
2018,07,24,14,58,28.80
2018,07,24,14,59,28.80
2018,07,24,15,00,28.80
2018,07,24,15,01,28.80
2018,07,24,15,02,28.80
2018,07,24,15,03,28.80
2018,07,24,15,04,28.80
2018,07,24,15,05,28.80
2018,07,24,15,06,28.80
2018,07,24,15,07,28.80
2018,07,24,15,08,28.90
2018,07,24,15,09,28.90
2018,07,24,15,10,28.90
2018,07,24,15,11,28.90
2018,07,24,15,12,28.90
2018,07,24,15,13,28.90
2018,07,24,15,14,28.90
2018,07,24,15,15,28.90
2018,07,24,15,16,29.00
2018,07,24,15,17,29.00
2018,07,24,15,18,29.00
2018,07,24,15,19,28.90
2018,07,24,15,20,28.90
2018,07,24,15,21,28.90
2018,07,24,15,22,28.90
2018,07,24,15,23,28.90
2018,07,24,15,24,29.00
2018,07,24,15,25,29.00
2018,07,24,15,26,29.10
2018,07,24,15,27,29.10
2018,07,24,15,28,29.10
2018,07,24,15,29,29.10
2018,07,24,15,30,29.10
2018,07,24,15,31,29.10
2018,07,24,15,32,29.10
2018,07,24,15,33,29.10
2018,07,24,15,34,29.10
2018,07,24,15,35,29.10
2018,07,24,15,36,29.10
2018,07,24,15,37,29.10
2018,07,24,15,38,29.10
2018,07,24,15,39,29.10
2018,07,24,15,40,29.10
2018,07,24,15,41,29.10
2018,07,24,15,42,29.10
2018,07,24,15,43,29.20
2018,07,24,15,44,29.30
2018,07,24,15,45,29.30
2018,07,24,15,46,29.20
2018,07,24,15,47,29.20
2018,07,24,15,48,29.30
2018,07,24,15,49,29.30
2018,07,24,15,50,29.30
2018,07,24,15,51,29.40
2018,07,24,15,52,29.40
2018,07,24,15,53,29.40
2018,07,24,15,54,29.40
2018,07,24,15,55,29.40
2018,07,24,15,56,29.40
2018,07,24,15,57,29.30
2018,07,24,15,58,29.30
2018,07,24,15,59,29.40
2018,07,24,16,00,29.40
2018,07,24,16,01,29.50
2018,07,24,16,02,29.50
2018,07,24,16,03,29.50
2018,07,24,16,04,29.50
2018,07,24,16,05,29.60
2018,07,24,16,06,29.60
2018,07,24,16,07,29.70
2018,07,24,16,08,29.70
2018,07,24,16,09,29.70
2018,07,24,16,10,29.70
2018,07,24,16,11,29.70
2018,07,24,16,12,29.70
2018,07,24,16,13,29.70
2018,07,24,16,14,29.70
2018,07,24,16,15,29.70
2018,07,24,16,16,29.70
2018,07,24,16,17,29.70
2018,07,24,16,18,29.70
2018,07,24,16,19,29.60
2018,07,24,16,20,29.60
2018,07,24,16,21,29.60
2018,07,24,16,22,29.60
2018,07,24,16,23,29.70
2018,07,24,16,24,29.60
2018,07,24,16,25,29.60
2018,07,24,16,26,29.60
2018,07,24,16,27,29.60
2018,07,24,16,28,29.60
2018,07,24,16,29,29.60
2018,07,24,16,30,29.60
2018,07,24,16,31,29.60
2018,07,24,16,32,29.70
2018,07,24,16,33,29.80
2018,07,24,16,34,29.80
2018,07,24,16,35,29.80
2018,07,24,16,36,29.90
2018,07,24,16,37,29.80
2018,07,24,16,38,29.80
2018,07,24,16,39,29.80
2018,07,24,16,40,29.80
2018,07,24,16,41,29.80
2018,07,24,16,42,29.70
2018,07,24,16,43,29.70
2018,07,24,16,44,29.70
2018,07,24,16,45,29.70
2018,07,24,16,46,29.70
2018,07,24,16,47,29.60
2018,07,24,16,48,29.60
2018,07,24,16,49,29.50
2018,07,24,16,50,29.50
2018,07,24,16,51,29.50
2018,07,24,16,52,29.60
2018,07,24,16,53,29.60
2018,07,24,16,54,29.70
2018,07,24,16,55,29.70
2018,07,24,16,56,29.70
2018,07,24,16,57,29.70
2018,07,24,16,58,29.70
2018,07,24,16,59,29.70
2018,07,24,17,00,29.60
2018,07,24,17,01,29.60
2018,07,24,17,02,29.60
2018,07,24,17,03,29.60
2018,07,24,17,04,29.50
2018,07,24,17,05,29.60
2018,07,24,17,06,29.60
2018,07,24,17,07,29.60
2018,07,24,17,08,29.60
2018,07,24,17,09,29.60
2018,07,24,17,10,29.60
2018,07,24,17,11,29.60
2018,07,24,17,12,29.60
2018,07,24,17,13,29.50
2018,07,24,17,14,29.50
2018,07,24,17,15,29.50
2018,07,24,17,16,29.50
2018,07,24,17,17,29.50
2018,07,24,17,18,29.50
2018,07,24,17,19,29.50